Location: Newark
(25.6108°S, 54.5803°W)
Time: 16:45:29
(UTC+00:00)

Courier 1B Rocket - Pass Details

Date: 02 November 2020
Orbit: 920 x 1202 km, 28.2° (Epoch: 22 November)

Event Time Altitude Azimuth Distance (km) Brightness Sun altitude
Rises 12:00:15 0° 257° (WSW) 3,887 7.7 41.8°
Reaches altitude 10° 12:03:05 10° 258° (WSW) 2,886 7.1 42.5°
Maximum altitude 12:10:07 84° 345° (NNW) 1,013 5.9 44.0°
Drops below altitude 10° 12:16:38 10° 72° (ENE) 2,686 8.3 45.5°
Sets 12:19:12 0° 73° (ENE) 3,602 8.7 46.1°
